Retour au catalogue

STARLINK-31421

ActifCommunicationsVLEO
NORAD 59218·PAYLOAD·🇺🇸 United States

Lancé Mar 11, 2024 depuis Vandenberg Space Force Base

Loading…

Prochains Passages (prochaines 24 heures)

TLE

FraisSource: CelesTrak SupGP

Époque: Sep 14, 2026, 21:36 UTC

1 59218C 24046T   26257.90048611 -.00012594  00000+0 -37212-3 0  2579
2 59218  53.1592 351.9657 0001176  84.1126 235.0258 15.34394087    15

Suivez STARLINK-31421 en temps réel avec AllMySat

Download on the App Store